North Platte, NE

10:15 PM CDT on September 19, 2017 (GMT -0500)
North Platte Regional-Bird

Weather History for KLBF - February, 2014

Change the Weather History Date:

Monday, February 10, 2014

  Actual Average Record
Temperature  
Mean Temperature 13 °F 28 °F  
Max Temperature 16 °F 42 °F 76 °F (1999)
Min Temperature 9 °F 14 °F -22 °F (1981)
Degree Days  
Heating Degree Days 52 37  
Month to date heating degree days 574 382  
Since 1 July heating degree days 4522 4402  
Cooling Degree Days 0 0  
Month to date cooling degree days 0 0  
Year to date cooling degree days 0 0  
Moisture  
Dew Point 6 °F    
Average Humidity 77    
Maximum Humidity 80    
Minimum Humidity 73    
Precipitation  
Precipitation T in 0.02 in 0.41 in (2013)
Month to date precipitation 0.34 0.13  
Year to date precipitation 0.66 0.47  
Snow  
Snow T in 0.20 in 4.40 in (2013)
Month to date snowfall 5.9 1.8  
Since 1 July snowfall 16.7 17.4  
Snow Depth 5.00 in    
Sea Level Pressure  
Sea Level Pressure 30.38 in    
Wind  
Wind Speed 7 mph (South)    
Max Wind Speed 14 mph    
Max Gust Speed 17 mph    
Visibility 10 miles    
Events      
T = Trace of Precipitation, MM = Missing Value Source: NWS Daily Summary

Daily Weather History Graph

Daily Weather History Graph

Search for Another Location

Airport or City:

Trip Planner

Search our weather history database for the weather conditions in past years. The results will help you decide how hot, cold, wet, or windy it might be!

Date:

Astronomy

Feb. 10, 2014 Rise Set
Actual Time 7:43 AM CST 6:10 PM CST
Civil Twilight 7:15 AM CST 6:39 PM CST
Nautical Twilight 6:42 AM CST 7:11 PM CST
Astronomical Twilight 6:10 AM CST 7:43 PM CST
Moon 2:40 PM CST (2/10) 4:39 AM CST (2/10)
Length of Visible Light 11h 24m
Length of Day
10h 27m
Waxing Gibbous, 85% of the Moon is Illuminated
Feb 10
Waxing Gibbous
Feb 14
Full
Feb 22
Last Quarter
Mar 1
New
Mar 8
First Quarter

Hourly Weather History & Observations

Time (CST) Temp. Windchill Dew Point Humidity Pressure Visibility Wind Dir Wind Speed Gust Speed Precip Events Conditions
12:53 AM 9.0 °F - 3.9 °F 80% 30.46 in 10.0 mi Calm Calm - N/A   Overcast
1:53 AM 9.0 °F 2.4 °F 3.9 °F 80% 30.45 in 10.0 mi SSE 3.5 mph - N/A   Overcast
2:53 AM 10.0 °F - 3.9 °F 76% 30.45 in 10.0 mi Calm Calm - N/A   Overcast
3:53 AM 10.0 °F 1.8 °F 5.0 °F 80% 30.43 in 10.0 mi SSE 4.6 mph - N/A   Overcast
4:53 AM 10.0 °F 1.8 °F 5.0 °F 80% 30.43 in 10.0 mi SSE 4.6 mph - N/A   Overcast
5:53 AM 10.0 °F -0.9 °F 3.9 °F 76% 30.43 in 10.0 mi SSE 6.9 mph - N/A   Overcast
6:01 AM 10.4 °F 2.2 °F 3.2 °F 73% 30.26 in 10.0 mi SSE 4.6 mph - N/A   Overcast
6:35 AM 8.6 °F -1.3 °F 3.2 °F 79% 30.25 in 10.0 mi SE 5.8 mph - N/A   Overcast
6:53 AM 10.0 °F 0.4 °F 3.9 °F 76% 30.43 in 10.0 mi SSE 5.8 mph - N/A   Overcast
7:53 AM 9.0 °F -0.9 °F 3.9 °F 80% 30.45 in 10.0 mi South 5.8 mph - N/A   Overcast
8:04 AM 8.6 °F -1.3 °F 3.2 °F 79% 30.28 in 10.0 mi SSE 5.8 mph - N/A   Overcast
8:53 AM 10.0 °F -2.9 °F 3.9 °F 76% 30.44 in 8.0 mi South 9.2 mph - N/A   Overcast
9:53 AM 10.0 °F -3.7 °F 3.9 °F 76% 30.43 in 6.0 mi SSE 10.4 mph - N/A   Haze
10:21 AM 10.4 °F -1.5 °F 5.0 °F 79% 30.25 in 7.0 mi SSE 8.1 mph - N/A   Overcast
10:53 AM 10.9 °F -1.8 °F 5.0 °F 77% 30.40 in 10.0 mi SE 9.2 mph - N/A   Mostly Cloudy
11:02 AM 10.4 °F -1.5 °F 5.0 °F 79% 30.24 in 10.0 mi SE 8.1 mph - N/A   Partly Cloudy
11:53 AM 12.9 °F 2.6 °F 6.1 °F 74% 30.39 in 10.0 mi SSE 6.9 mph - N/A   Mostly Cloudy
12:01 PM 12.2 °F -1.0 °F 6.8 °F 79% 30.25 in 10.0 mi SSW 10.4 mph - N/A   Mostly Cloudy
12:53 PM 14.0 °F 1.2 °F 6.1 °F 71% 30.39 in 10.0 mi SSW 10.4 mph - N/A   Overcast
1:53 PM 14.0 °F 1.2 °F 6.1 °F 71% 30.37 in 10.0 mi South 10.4 mph - N/A   Overcast
2:53 PM 15.1 °F 1.1 °F 8.1 °F 74% 30.34 in 10.0 mi South 12.7 mph - N/A   Overcast
3:53 PM 15.1 °F 5.2 °F 8.1 °F 74% 30.35 in 10.0 mi South 6.9 mph - N/A   Overcast
4:53 PM 16.0 °F 5.3 °F 8.1 °F 71% 30.37 in 10.0 mi South 8.1 mph - N/A   Overcast
5:53 PM 16.0 °F 7.4 °F 8.1 °F 71% 30.38 in 10.0 mi SSE 5.8 mph - N/A   Overcast
6:53 PM 12.9 °F 5.2 °F 6.1 °F 74% 30.41 in 10.0 mi SE 4.6 mph - N/A   Mostly Cloudy
7:06 PM 12.2 °F 6.1 °F 6.8 °F 79% 30.26 in 10.0 mi SE 3.5 mph - N/A   Mostly Cloudy
7:53 PM 12.9 °F 1.6 °F 7.0 °F 77% 30.41 in 10.0 mi South 8.1 mph - N/A   Overcast
8:53 PM 12.9 °F 1.6 °F 7.0 °F 77% 30.40 in 10.0 mi South 8.1 mph - N/A   Overcast
9:53 PM 12.9 °F -0.9 °F 7.0 °F 77% 30.40 in 10.0 mi South 11.5 mph - N/A   Overcast
10:53 PM 12.0 °F 1.5 °F 7.0 °F 80% 30.40 in 10.0 mi South 6.9 mph - N/A   Overcast
11:43 PM 12.2 °F 1.7 °F 6.8 °F 79% 30.23 in 10.0 mi SSW 6.9 mph - N/A   Overcast
11:53 PM 12.0 °F 4.1 °F 7.0 °F 80% 30.38 in 10.0 mi SW 4.6 mph - N/A   Mostly Cloudy